Location: Howardsville
(37.8356°N, 107.5942°W)
Time: 13:01:52
(UTC+00:00)

Daily predictions for brighter satellites

Satellite Brightness Start Highest point End
(mag) Time Altitude Azimuth Time Altitude Azimuth Time Altitude Azimuth
METEOR-M 4.3 12:04:12 10° N 12:09:25 55° WNW 12:14:36 10° SSW
Cosmos 2369 Rocket 2.2 12:05:49 10° SSW 12:11:22 77° WNW 12:17:00 10° NNE
Cosmos 1943 Rocket 2.8 12:06:49 10° SW 12:12:07 40° WNW 12:17:27 10° N
